Skip Page Navigation
NASA JPL Caltech
NASA Logo - Jet Propulsion Laboratory + View the NASA Portal
+ Center for Near-Earth Object Studies
JPL Home Earth Solar System Stars & Galaxies Technology
JPL Solar System Dynamics
BODIES ORBITS EPHEMERIDES TOOLS PHYSICAL DATA DISCOVERY FAQ SITE MAP
JPL Small-Body Database Browser
Search: [ help ]  
2591 Dworetsky (1949 PS)
Classification: Main-belt Asteroid          SPK-ID: 2002591
Ephemeris | Orbit Diagram | Orbital Elements | Mission Design | Physical Parameters | Discovery Circumstances | Close-Approach Data ]

[ hide orbit diagram ]

For accurate long-term ephemerides, please instead use our Horizons system.This orbit viewer was implemented using two-body methods, and hence should not be used for determining accurate long-term trajectories (over several years or decades) or planetary encounter circumstances.


[ revert to old Java-based viewer ]

Orbital Elements at Epoch 2459000.5 (2020-May-31.0) TDB
Reference: JPL 31 (heliocentric ecliptic J2000)
 Element Value Uncertainty (1-sigma)   Units 
e .04146943153820989 3.1385e-08  
a 2.937295461663759 1.279e-08 au
q 2.815487488608799 9.207e-08 au
i 1.541083116248498 4.9994e-06 deg
node 356.0435102322315 0.00013107 deg
peri 270.2641457441167 0.00014751 deg
M 75.91845131713941 6.8461e-05 deg
tp 2458612.738472327473
(2019-May-09.23847233)
0.00034968 TDB
period 1838.738113597359
5.03
1.201e-05
3.288e-08
d
yr
n .1957864457900891 1.2788e-09 deg/d
Q 3.059103434718719 1.332e-08 au
  Orbit Determination Parameters
   # obs. used (total)      2597  
   data-arc span      31431 days (86.05 yr)  
   first obs. used      1934-09-02  
   last obs. used      2020-09-21  
   planetary ephem.      DE431  
   SB-pert. ephem.      SB431-N16  
   condition code      0  
   norm. resid. RMS      .46378  
   source      ORB  
   producer      Otto Matic  
   solution date      2020-Oct-22 15:40:15  

Additional Information
 Earth MOID = 1.80011 au 
 Jupiter MOID = 1.96627 au 
 T_jup = 3.272 
[ show covariance matrix ]

Ephemeris | Orbit Diagram | Orbital Elements | Mission Design | Physical Parameters | Discovery Circumstances | Close-Approach Data ]

Physical Parameter Table
Parameter Symbol Value Units Sigma Reference Notes
absolute magnitude H 11.5   n/a MPO452198  
diameter diameter 12.925 km 0.141 urn:nasa:pds:neowise_diameters_albedos::2.0[mainbelt] (http://adsabs.harvard.edu/abs/2014ApJ...791..121M)  
rotation period rot_per 12.77 h n/a LCDB (Rev. 2019-August); Warner et al., 2009 Result based on less than full coverage, so that the period may be wrong by 30 percent or so.
Published Reference List:
[Behrend, R. (2005) Observatoire de Geneve web site, http://obswww.unige.ch/~behrend/page_cou.html]
geometric albedo albedo 0.291   0.037 urn:nasa:pds:neowise_diameters_albedos::2.0[mainbelt] (http://adsabs.harvard.edu/abs/2014ApJ...791..121M)  

2591 Dworetsky (1949 PS)          Discovered 1949-Aug-02 by Reinmuth, K. at Heidelberg
Reference: DISCOVERY.DBLast Updated: 2003-08-29

[ show close-approach data ]
Alternate Designations
 1949 PS = 1929 RH1 = 1934 RD = 1949 QU = 1952 DC1 = 1962 BD = 1962 EH = 1969 OC = 1973 GQ = 1975 TU4 = 1978 GX3 = 1979 OD14 = 1981 YL2 = 1982 BO 
Ephemeris | Orbit Diagram | Orbital Elements | Mission Design | Physical Parameters | Discovery Circumstances | Close-Approach Data ]
ABOUT SSD CREDITS/AWARDS PRIVACY/COPYRIGHT GLOSSARY LINKS
FirstGov 2020-Oct-29 06:01 UT
(server date/time)  
NASA Home Page
Site Manager:   Ryan S. Park
Webmaster  Alan B. Chamberlin